Location: Unspecified
(64.9000°N, 0.0000°E)
Time: 20:03:04
(UTC+00:00)

Transit 2A Rocket - Pass Details

Date: 19 June 2019
Orbit: 590 x 913 km, 66.7° (Epoch: 22 August)

Event Time Altitude Azimuth Distance (km) Brightness Sun altitude
Rises 10:58:01 0° 189° (S) 3,537 9.0 47.3°
Reaches altitude 10° 11:00:51 10° 179° (S) 2,586 8.6 47.4°
Maximum altitude 11:05:56 29° 122° (ESE) 1,566 7.7 47.6°
Drops below altitude 10° 11:10:49 10° 64° (ENE) 2,483 7.7 47.7°
Sets 11:13:29 0° 54° (NE) 3,373 8.2 47.8°
